[[{"header":{"parameterUnit":"m.s-1","parameterCategory":1,"la1":30.2991,"la2":30.254,"lo1":-89.0895,"lo2":-89.0444,"dy":0.0017,"dx":0.0017,"nx":28,"ny":28,"refTime":"2024-02-19T09:00:00:Z","depth":0,"parameterNumber":2,"parameterNumberName":"U-component_of_WINDS"},"data":[0,0,0,0,0,0,0,0,0,0,0,0,0,0,0,0,0,0,0,0,0,0,0,0,0,0,0,0,0,0,0,0,0,0,0,0,0,0,0,0,0,0,0,0,0,0,0,0,0,0,0,0,0,0,0,0,0,0,0.1219,0.1219,0,0.1219,0.1219,0.1219,0.1254,0.1254,0.1255,0.1256,0.1255,0.1254,0.1253,0,0,0,0,0,0,0,0,0,0,0,0,0,0.1248,0.1248,0.1219,0.1219,0.1219,0.1219,0.1219,0.1219,0.1253,0.1254,0.1256,0.1257,0.1255,0.1254,0.1253,0,0,0,0,0,0,0,0,0,0,0,0,0,0.1241,0.1247,0.1219,0.1236,0.1238,0.1219,0.1219,0.1219,0.1253,0.1254,0.1256,0.1257,0.1255,0.1254,0.1253,0.1217,0,0,0.1249,0.1248,0,0,0,0,0,0,0,0,0.1241,0.1239,0.1234,0.1235,0.1237,0.1238,0.1229,0.1218,0.1253,0.1247,0.1256,0.1258,0.1248,0.1247,0.1244,0.1217,0.1217,0.1248,0.1248,0.1247,0.1247,0,0,0,0,0,0,0,0.1241,0.124,0.1219,0.1234,0.1236,0.1244,0.1244,0.1227,0.124,0.1248,0.125,0.125,0.1249,0.1245,0.1244,0.1217,0.1249,0.1247,0.1246,0.1246,0.116,0.1158,0,0,0,0,0,0,0.124,0.124,0.1219,0.1219,0.1242,0.1242,0.1243,0.1236,0.124,0.1242,0.1249,0.1252,0.1247,0.1246,0.1244,0.1202,0.1247,0.1246,0.1245,0.1161,0.116,0.1158,0,0,0,0,0,0,0.124,0.1238,0.1219,0.123,0.1228,0.124,0.1233,0.1235,0.1232,0.1241,0.1243,0.1243,0.1248,0.1246,0.1224,0.1203,0.1245,0.1244,0.1163,0.1161,0.1159,0.1118,0,0,0,0,0,0,0.1241,0.1238,0.1224,0.123,0.1228,0.1198,0.1231,0.1234,0.123,0.1233,0.1236,0.1238,0.1249,0.1225,0.1222,0.1201,0.1243,0.1165,0.1162,0.1159,0.1121,0.1114,0.1109,0,0,0,0,0,0.1242,0.1213,0.1223,0.1221,0.1211,0.1197,0.1196,0.121,0.1228,0.1214,0.122,0.1237,0.1206,0.1223,0.1219,0.1198,0.1166,0.1163,0.116,0.1124,0.1116,0.1109,0,0,0,0,0,0,0.1204,0.1214,0.1226,0.1197,0.1196,0.1203,0.1186,0.1201,0.1195,0.1198,0.1216,0.1216,0.119,0.1192,0.1211,0.1164,0.1189,0.1185,0.1163,0.1155,0.1149,0.1149,0.1242,0,0,0,0,0,0.1193,0.118,0.1189,0.1164,0.1162,0.1174,0.1169,0.118,0.1179,0.1179,0.1183,0.1181,0.1171,0.1163,0.1154,0.1122,0.1122,0.1106,0.11,0.1095,0.109,0.1072,0.1065,0.1147,0.1147,0.1147,0,0,0.1168,0.1172,0.1163,0.1156,0.1156,0.1143,0.1174,0.1158,0.1148,0.1176,0.1155,0.1158,0.1157,0.1129,0.1117,0.113,0.1068,0.109,0.1086,0.1085,0.1068,0.106,0.1053,0.1145,0.1145,0.1145,0,0,0.1117,0.1119,0.1097,0.1097,0.1098,0.1106,0.1101,0.1105,0.1108,0.1088,0.1108,0.1096,0.1078,0.1077,0.1073,0.1022,0.1037,0.1019,0.0986,0.0968,0.0962,0.0956,0.0936,0.0929,0.1015,0.1015,0.1015,0,0.1086,0.1067,0.1084,0.1067,0.1063,0.1089,0.1066,0.1065,0.1062,0.1059,0.1074,0.1051,0.1053,0.1024,0.1012,0.1009,0.1003,0.1018,0.0962,0.0956,0.0951,0.0932,0.0925,0.1012,0.1013,0.1013,0.1013,0,0.1029,0.1016,0.0998,0.0995,0.0989,0.097,0.0983,0.0975,0.0987,0.0994,0.0972,0.0974,0.0966,0.0961,0.0972,0.0933,0.0941,0.0959,0.0984,0.094,0.0923,0.0916,0.1009,0.101,0.101,0.1011,0,0,0.0953,0.096,0.0953,0.0951,0.0954,0.0944,0.0925,0.0918,0.091,0.0908,0.0892,0.0876,0.0892,0.0889,0.09,0.0885,0.0843,0.0904,0.0904,0.0891,0.0799,0.0785,0.0776,0.0854,0.0852,0.0851,0.0799,0,0.0902,0.0871,0.0886,0.0853,0.084,0.0864,0.0848,0.0848,0.0854,0.0843,0.085,0.0838,0.0861,0.0859,0.0845,0.0851,0.0824,0.0855,0.0838,0.0837,0.0836,0.0768,0.0752,0.0703,0.0792,0.0791,0.079,0,0.0838,0.0833,0.0799,0.0804,0.0799,0.0784,0.0778,0.0768,0.0768,0.0774,0.077,0.0785,0.0766,0.0793,0.0768,0.0788,0.0783,0.0785,0.0783,0.078,0.081,0.0762,0.0687,0.0679,0.078,0.0781,0.0782,0,0.0784,0.0769,0.0746,0.0745,0.075,0.0739,0.074,0.0742,0.0736,0.0731,0.0727,0.072,0.0715,0.0709,0.0722,0.074,0.0694,0.0722,0.0697,0.0696,0.0684,0.0685,0.0606,0.0683,0.0684,0.0684,0.0684,0,0.0725,0.0702,0.0722,0.0708,0.0683,0.0701,0.0676,0.068,0.0682,0.0668,0.0689,0.0676,0.0694,0.0683,0.0693,0.0669,0.0668,0.0671,0.0673,0.0668,0.0667,0.0663,0.0666,0.0682,0.0682,0.0683,0.0683,0,0.0659,0.0671,0.0648,0.0655,0.0657,0.0638,0.0644,0.0631,0.0639,0.0622,0.0619,0.0631,0.0618,0.0631,0.0619,0.0626,0.0594,0.0602,0.0594,0.0596,0.0569,0.0571,0.0483,0.0472,0.0558,0.0557,0.0557,0,0.0619,0.0603,0.0608,0.0601,0.0602,0.059,0.0584,0.0601,0.0594,0.0593,0.058,0.057,0.0562,0.0541,0.0548,0.054,0.0547,0.0517,0.0546,0.054,0.0544,0.0545,0.0542,0.0511,0.051,0.0509,0.0508,0,0.0547,0.0555,0.0546,0.0539,0.0532,0.0528,0.0525,0.0518,0.0535,0.0526,0.0514,0.0508,0.0497,0.0486,0.0479,0.048,0.0496,0.0499,0.0493,0.0486,0.0481,0.0482,0.0576,0.0501,0.0502,0.0502,0.0502,0.0503,0.0493,0.0479,0.048,0.047,0.047,0.0467,0.0454,0.0461,0.0451,0.0443,0.0454,0.0439,0.0439,0.0432,0.0431,0.0419,0.0432,0.0422,0.042,0.0417,0.0412,0.0485,0.0418,0.0418,0.0419,0.0419,0.0419,0,0.042,0.0423,0.0413,0.0409,0.04,0.0418,0.0415,0.0407,0.0393,0.0392,0.0385,0.037,0.036,0.0367,0.0358,0.0347,0.0354,0.0343,0.0343,0.0343,0.0402,0.0408,0.0338,0.0338,0.0338,0.0338,0.0338,0.0338,0.0382,0.0359,0.0366,0.0343,0.0346,0.0331,0.0328,0.0325,0.0325,0.0308,0.0299,0.0304,0.0306,0.0297,0.0288,0.0291,0.0285,0.0272,0.0277,0.0331,0.0339,0.0347,0.0352,0.0271,0.0271,0.0219,0.0218,0.0218]},{"header":{"parameterUnit":"m.s-1","parameterCategory":1,"la1":30.2991,"la2":30.254,"lo1":-89.0895,"lo2":-89.0444,"dy":0.0017,"dx":0.0017,"nx":28,"ny":28,"refTime":"2024-02-19T09:00:00:Z","depth":0,"parameterNumber":3,"parameterNumberName":"V-component_of_WINDS"},"data":[0,0,0,0,0,0,0,0,0,0,0,0,0,0,0,0,0,0,0,0,0,0,0,0,0,0,0,0,0,0,0,0,0,0,0,0,0,0,0,0,0,0,0,0,0,0,0,0,0,0,0,0,0,0,0,0,0,0,-1.1549,-1.155,0,-1.1622,-1.1623,-1.1624,-1.1641,-1.1641,-1.164,-1.164,-1.1715,-1.1717,-1.1719,0,0,0,0,0,0,0,0,0,0,0,0,0,-1.1425,-1.1427,-1.1549,-1.155,-1.1551,-1.1622,-1.1623,-1.1624,-1.1641,-1.1641,-1.164,-1.164,-1.1714,-1.1717,-1.172,0,0,0,0,0,0,0,0,0,0,0,0,0,-1.1487,-1.1428,-1.1549,-1.1568,-1.157,-1.1622,-1.1623,-1.1624,-1.1642,-1.1641,-1.164,-1.1639,-1.1713,-1.1716,-1.172,-1.1757,0,0,-1.1731,-1.1733,0,0,0,0,0,0,0,0,-1.1483,-1.1491,-1.1564,-1.1567,-1.157,-1.1622,-1.1607,-1.1669,-1.1642,-1.1615,-1.164,-1.1639,-1.1684,-1.169,-1.1706,-1.1761,-1.1764,-1.1732,-1.1734,-1.1735,-1.1736,0,0,0,0,0,0,0,-1.1479,-1.1488,-1.1578,-1.1565,-1.1569,-1.1573,-1.1581,-1.1618,-1.1653,-1.1617,-1.1618,-1.1627,-1.1686,-1.1702,-1.1707,-1.1765,-1.1731,-1.1735,-1.1737,-1.1738,-1.1856,-1.1857,0,0,0,0,0,0,-1.1471,-1.1484,-1.1575,-1.158,-1.1524,-1.1576,-1.1585,-1.1606,-1.1652,-1.1659,-1.1627,-1.1627,-1.1696,-1.1703,-1.171,-1.1758,-1.1735,-1.1739,-1.1741,-1.1855,-1.1856,-1.1857,0,0,0,0,0,0,-1.1468,-1.1479,-1.1572,-1.1533,-1.1545,-1.1579,-1.1602,-1.1608,-1.1624,-1.166,-1.1666,-1.1638,-1.1696,-1.1705,-1.1746,-1.1761,-1.174,-1.1744,-1.1854,-1.1855,-1.1857,-1.1854,0,0,0,0,0,0,-1.1465,-1.1478,-1.1492,-1.1533,-1.1547,-1.1607,-1.1603,-1.161,-1.163,-1.1631,-1.1672,-1.1678,-1.1696,-1.174,-1.1749,-1.1766,-1.1747,-1.1853,-1.1854,-1.1856,-1.1853,-1.1855,-1.1857,0,0,0,0,0,-1.146,-1.1488,-1.1493,-1.1504,-1.1565,-1.1607,-1.1615,-1.1636,-1.1631,-1.1646,-1.167,-1.1676,-1.1757,-1.1744,-1.1755,-1.1772,-1.1852,-1.1854,-1.1856,-1.1852,-1.1854,-1.1857,0,0,0,0,0,0,-1.1448,-1.1494,-1.15,-1.1541,-1.157,-1.161,-1.163,-1.1638,-1.1669,-1.1668,-1.1693,-1.1702,-1.1741,-1.1761,-1.1745,-1.1812,-1.1805,-1.1809,-1.1798,-1.1801,-1.1803,-1.1798,-1.175,0,0,0,0,0,-1.145,-1.148,-1.1518,-1.1551,-1.1566,-1.1595,-1.1614,-1.1628,-1.1659,-1.1671,-1.1698,-1.1728,-1.176,-1.1781,-1.1813,-1.1855,-1.1865,-1.1872,-1.1874,-1.1876,-1.188,-1.1905,-1.191,-1.1864,-1.1864,-1.1864,0,0,-1.1454,-1.1483,-1.1501,-1.155,-1.1574,-1.1605,-1.1605,-1.1638,-1.1662,-1.1676,-1.1717,-1.1737,-1.1772,-1.1815,-1.1834,-1.1832,-1.1894,-1.1878,-1.1879,-1.1883,-1.1908,-1.1912,-1.1916,-1.1865,-1.1865,-1.1865,0,0,-1.1479,-1.1503,-1.1535,-1.1559,-1.1596,-1.1616,-1.1623,-1.1662,-1.1677,-1.1718,-1.173,-1.1758,-1.1813,-1.1838,-1.1858,-1.1894,-1.1902,-1.1903,-1.1915,-1.1939,-1.1943,-1.1946,-1.1961,-1.1966,-1.1907,-1.1907,-1.1907,0,-1.1481,-1.1528,-1.1549,-1.1582,-1.1604,-1.1619,-1.1651,-1.1674,-1.1719,-1.1734,-1.173,-1.1801,-1.1825,-1.1875,-1.1883,-1.1898,-1.1909,-1.19,-1.1941,-1.1944,-1.1948,-1.1962,-1.1967,-1.1907,-1.1907,-1.1907,-1.1907,0,-1.1529,-1.1562,-1.1583,-1.1627,-1.1651,-1.1683,-1.171,-1.1731,-1.1743,-1.1763,-1.1805,-1.1835,-1.1874,-1.1887,-1.1897,-1.1938,-1.1935,-1.1936,-1.193,-1.1952,-1.1966,-1.1971,-1.1907,-1.1907,-1.1907,-1.1907,0,0,-1.1548,-1.1605,-1.1612,-1.1633,-1.1676,-1.1702,-1.1735,-1.1773,-1.1793,-1.1823,-1.1853,-1.1899,-1.1901,-1.1923,-1.1937,-1.1958,-1.1987,-1.1957,-1.1958,-1.1963,-1.2036,-1.2037,-1.2043,-1.1992,-1.1993,-1.1994,-1.2034,0,-1.158,-1.1641,-1.1661,-1.1712,-1.1744,-1.1758,-1.1787,-1.1817,-1.1836,-1.1866,-1.1888,-1.1921,-1.1919,-1.1934,-1.1955,-1.1979,-1.2003,-1.1976,-1.2021,-1.2023,-1.2014,-1.205,-1.205,-1.2086,-1.2039,-1.204,-1.2041,0,-1.1625,-1.1658,-1.1712,-1.1752,-1.1766,-1.1792,-1.183,-1.1858,-1.1892,-1.1904,-1.193,-1.1943,-1.1979,-1.197,-1.2021,-1.2003,-1.2022,-1.2037,-1.2039,-1.2045,-1.2034,-1.2059,-1.2098,-1.2104,-1.2049,-1.2048,-1.2048,0,-1.1637,-1.1694,-1.1734,-1.1751,-1.1798,-1.1817,-1.1837,-1.187,-1.1893,-1.1925,-1.1941,-1.1977,-1.1997,-1.2025,-1.2048,-1.2038,-1.2097,-1.2089,-1.211,-1.211,-1.2124,-1.2123,-1.2168,-1.2133,-1.2132,-1.2132,-1.2132,0,-1.1671,-1.1704,-1.174,-1.1765,-1.1803,-1.1826,-1.1863,-1.1884,-1.1913,-1.1943,-1.1957,-1.1985,-1.2012,-1.2043,-1.2061,-1.2102,-1.211,-1.2122,-1.2127,-1.2123,-1.2121,-1.2137,-1.2136,-1.2134,-1.2133,-1.2133,-1.2133,0,-1.1691,-1.1716,-1.1761,-1.1803,-1.1814,-1.184,-1.1875,-1.19,-1.1921,-1.1958,-1.1968,-1.2,-1.2038,-1.2063,-1.2111,-1.2123,-1.2168,-1.2171,-1.2157,-1.216,-1.218,-1.2179,-1.2239,-1.2249,-1.2204,-1.2205,-1.2205,0,-1.1712,-1.1738,-1.1782,-1.1804,-1.1825,-1.1858,-1.1882,-1.1905,-1.1929,-1.197,-1.1991,-1.203,-1.2062,-1.2122,-1.215,-1.2187,-1.2192,-1.2211,-1.2198,-1.2193,-1.2195,-1.2194,-1.2198,-1.2213,-1.2214,-1.2214,-1.2214,0,-1.1748,-1.176,-1.1793,-1.1831,-1.1859,-1.189,-1.1921,-1.1937,-1.1966,-1.1992,-1.2032,-1.2057,-1.2107,-1.2146,-1.2186,-1.2207,-1.2216,-1.2218,-1.2225,-1.2222,-1.2214,-1.2221,-1.2165,-1.2217,-1.2217,-1.2216,-1.2216,-1.2216,-1.1771,-1.1795,-1.1831,-1.1868,-1.1894,-1.1923,-1.1949,-1.1973,-1.2007,-1.2049,-1.2061,-1.2103,-1.2137,-1.2192,-1.2214,-1.2247,-1.2245,-1.2255,-1.2258,-1.2261,-1.2262,-1.2207,-1.2254,-1.2254,-1.2254,-1.2254,-1.2254,0,-1.1809,-1.1833,-1.1867,-1.1911,-1.194,-1.1946,-1.1981,-1.2005,-1.2042,-1.2073,-1.2105,-1.2151,-1.2189,-1.222,-1.226,-1.2281,-1.2286,-1.229,-1.229,-1.2295,-1.226,-1.2251,-1.2285,-1.2285,-1.2285,-1.2285,-1.2285,-1.2285,-1.1833,-1.1876,-1.1892,-1.1948,-1.1971,-1.2013,-1.2032,-1.206,-1.2085,-1.2136,-1.2168,-1.2188,-1.222,-1.2262,-1.2297,-1.2306,-1.232,-1.2324,-1.2334,-1.2301,-1.2297,-1.2294,-1.2286,-1.2327,-1.2327,-1.2366,-1.2367,-1.2367]}]]